EW5799 Weather Reports


Display with metric or nautical units.
time (UTC)temp
F
wind
direction
speed
MPH
gust
MPH
rain 1hr
in
rain 24hr
in
rain mn
in
humidity
%
barometer
mb
20260504210016 76 229 7.0 15.0 0.00 0.00 0.00 76 1011.9
20260504204544 76 174 9.0 14.0 0.00 0.00 0.00 77 1012.1
20260504203043 76 120 8.0 16.0 0.00 0.00 0.00 75 1012.2
20260504201550 76 161 9.0 15.0 0.00 0.00 0.00 75 1012.5
20260504200038 77 134 7.0 16.0 0.00 0.00 0.00 73 1012.6
20260504194537 77 165 9.0 13.0 0.00 0.00 0.00 73 1012.6
20260504193033 77 179 7.0 15.0 0.00 0.00 0.00 73 1013.1
20260504191503 77 213 9.0 16.0 0.00 0.00 0.00 72 1013.2
20260504190002 77 176 9.0 16.0 0.00 0.00 0.00 72 1013.3
20260504184534 77 171 8.0 16.0 0.00 0.00 0.00 69 1013.2
20260504183028 77 186 5.0 14.0 0.00 0.00 0.00 71 1013.3
20260504181531 76 171 9.0 14.0 0.00 0.00 0.00 73 1013.9
20260504180023 76 143 9.0 16.0 0.00 0.00 0.00 71 1014.0
20260504174520 76 163 8.0 17.0 0.00 0.00 0.00 73 1014.0
20260504173019 76 154 8.0 16.0 0.00 0.00 0.00 72 1014.4
20260504171547 76 169 8.0 15.0 0.00 0.00 0.00 71 1014.4
20260504100110 65 131 1.0 3.0 0.00 0.00 0.00 80 1015.1
20260504081550 66 141 1.0 2.0 0.00 0.00 0.00 79 1015.7
20260504044553 66 142 2.0 4.0 0.00 0.00 0.00 74 1017.8
20260504043047 67 154 3.0 5.0 0.00 0.00 0.00 72 1017.8
20260504041546 67 127 2.0 3.0 0.00 0.00 0.00 73 1017.7
20260504040046 68 160 2.0 4.0 0.00 0.00 0.00 71 1017.7
20260504034542 69 145 3.0 5.0 0.00 0.00 0.00 69 1017.8
20260504033048 69 150 3.0 5.0 0.00 0.00 0.00 69 1017.8
20260504031537 69 146 4.0 6.0 0.00 0.00 0.00 68 1017.7
20260504030036 69 157 4.0 6.0 0.00 0.00 0.00 70 1017.6
20260504024544 69 144 4.0 6.0 0.00 0.00 0.00 68 1017.8
20260504023032 69 150 3.0 6.0 0.00 0.00 0.00 70 1017.7
20260504021530 69 161 4.0 6.0 0.00 0.00 0.00 66 1017.7
20260504020030 70 142 4.0 6.0 0.00 0.00 0.00 65 1017.6
20260504014525 70 156 4.0 7.0 0.00 0.00 0.00 66 1017.6
20260504013022 70 181 4.0 8.0 0.00 0.00 0.00 64 1017.6
20260504011523 71 156 6.0 9.0 0.00 0.00 0.00 65 1017.4
20260504010021 71 163 5.0 8.0 0.00 0.00 0.00 62 1017.5
20260504004537 72 167 5.0 9.0 0.00 0.00 0.00 60 1017.4
20260504003018 72 143 6.0 10.0 0.00 0.00 0.00 61 1017.4
20260504001517 72 160 7.0 11.0 0.00 0.00 0.00 63 1017.4
20260504000017 73 165 6.0 10.0 0.00 0.00 0.00 63 1017.4
20260503234513 73 138 7.0 11.0 0.00 0.00 0.00 61 1017.6
20260503233009 73 138 9.0 11.0 0.00 0.00 0.00 60 1017.7
20260503231509 74 136 6.0 10.0 0.00 0.00 0.00 60 1017.8
20260503230008 74 120 8.0 11.0 0.00 0.00 0.00 59 1017.8
20260503224505 74 122 5.0 11.0 0.00 0.00 0.00 60 1017.9
20260503223002 74 129 5.0 10.0 0.00 0.00 0.00 64 1018.3
20260503221501 74 78 6.0 11.0 0.00 0.00 0.00 59 1018.2
20260503220103 74 122 7.0 11.0 0.00 0.00 0.00 55 1018.2
20260503214607 74 116 8.0 11.0 0.00 0.00 0.00 59 1018.5
20260503213056 74 127 6.0 11.0 0.00 0.00 0.00 56 1018.8
20260503211535 74 67 6.0 11.0 0.00 0.00 0.00 57 1018.8